EW9842 Weather Reports


Display with metric or nautical units.
time (UTC)temp
F
wind
direction
speed
MPH
gust
MPH
rain 1hr
in
rain 24hr
in
rain mn
in
humidity
%
barometer
mb
20260831100034 46 153 4.0 6.0 0.00 0.00 0.00 89 1017.9
20260831094534 46 155 4.0 6.0 0.00 0.00 0.00 89 1018.1
20260831093031 46 150 3.0 6.0 0.00 0.00 0.00 88 1018.2
20260831091537 47 154 3.0 4.0 0.00 0.00 0.00 88 1018.3
20260831090035 47 152 3.0 5.0 0.00 0.00 0.00 89 1018.3
20260831084534 47 153 3.0 5.0 0.00 0.00 0.00 89 1018.4
20260831083033 46 152 3.0 5.0 0.00 0.00 0.00 89 1018.6
20260831081535 47 149 3.0 5.0 0.00 0.00 0.00 88 1018.7
20260831080035 47 148 3.0 5.0 0.00 0.00 0.00 88 1018.8
20260831074535 48 155 3.0 5.0 0.00 0.00 0.00 88 1018.8
20260831073033 48 153 3.0 6.0 0.00 0.00 0.00 88 1018.8
20260831070035 48 143 3.0 5.0 0.00 0.00 0.00 87 1019.0
20260831064533 49 148 3.0 5.0 0.00 0.00 0.00 86 1019.0
20260831063031 49 157 3.0 5.0 0.00 0.00 0.00 85 1019.1
20260831061532 49 159 3.0 5.0 0.00 0.00 0.00 85 1019.2
20260831053036 50 150 2.0 4.0 0.00 0.00 0.00 83 1019.5
20260831050036 51 144 3.0 5.0 0.00 0.00 0.00 82 1019.7
20260831044535 52 156 3.0 6.0 0.00 0.00 0.00 81 1019.8
20260831043035 52 156 3.0 5.0 0.00 0.00 0.00 81 1019.8
20260831041542 52 158 4.0 5.0 0.00 0.00 0.00 81 1019.8
20260831040036 52 157 5.0 6.0 0.00 0.00 0.00 81 1019.7
20260831034534 52 158 4.0 6.0 0.00 0.00 0.00 80 1019.6
20260831033035 54 157 2.0 3.0 0.00 0.00 0.00 76 1019.6
20260831031537 57 157 2.0 3.0 0.00 0.00 0.00 70 1019.5
20260831030030 60 307 2.0 5.0 0.00 0.00 0.00 61 1019.6
20260831024610 62 312 4.0 10.0 0.00 0.00 0.00 57 1019.5
20260831023110 63 307 4.0 9.0 0.00 0.00 0.00 55 1019.4
20260831021608 64 316 5.0 11.0 0.00 0.00 0.00 53 1019.5
20260831020109 65 321 5.0 9.0 0.00 0.00 0.00 51 1019.4
20260831014535 66 314 4.0 11.0 0.00 0.00 0.00 50 1019.5
20260831013030 67 313 4.0 10.0 0.00 0.00 0.00 48 1019.6
20260831011530 68 296 6.0 12.0 0.00 0.00 0.00 45 1019.6
20260831010035 71 285 5.0 11.0 0.00 0.00 0.00 42 1019.6
20260831000037 74 328 4.0 13.0 0.00 0.00 0.00 42 1019.6
20260830234537 75 335 5.0 12.0 0.00 0.00 0.00 41 1019.7
20260830231609 74 324 5.0 12.0 0.00 0.00 0.00 41 1019.7
20260830230035 74 339 5.0 11.0 0.00 0.00 0.00 41 1019.9
20260830224537 74 326 6.0 12.0 0.00 0.00 0.00 42 1020.0
20260830223035 74 337 5.0 11.0 0.00 0.00 0.00 42 1020.2
20260830221534 73 333 5.0 10.0 0.00 0.00 0.00 43 1020.5
20260830220032 73 328 6.0 13.0 0.00 0.00 0.00 43 1020.6
20260830213031 72 345 4.0 10.0 0.00 0.00 0.00 44 1021.0
20260830211531 72 351 4.0 9.0 0.00 0.00 0.00 45 1021.1
20260830203035 71 359 4.0 9.0 0.00 0.00 0.00 47 1021.4
20260830200037 68 322 2.0 7.0 0.00 0.00 0.00 47 1021.8
20260830191534 67 313 3.0 7.0 0.00 0.00 0.00 45 1022.0
20260830190109 68 346 1.0 7.0 0.00 0.00 0.00 46 1022.1
20260830184535 68 39 1.0 6.0 0.00 0.00 0.00 47 1022.3
20260830183036 66 79 1.0 7.0 0.00 0.00 0.00 48 1022.4
20260830181531 66 114 1.0 5.0 0.00 0.00 0.00 48 1022.5
20260830180035 65 324 1.0 7.0 0.00 0.00 0.00 50 1022.5
20260830171529 64 52 1.0 5.0 0.00 0.00 0.00 52 1022.5
20260830170034 63 59 1.0 4.0 0.00 0.00 0.00 56 1022.7
20260830164535 61 63 1.0 4.0 0.00 0.00 0.00 60 1022.9
20260830163033 58 80 1.0 4.0 0.00 0.00 0.00 66 1023.1
20260830161534 55 134 1.0 4.0 0.00 0.00 0.00 73 1023.2
20260830160109 53 149 1.0 4.0 0.00 0.00 0.00 76 1023.3
20260830154535 52 137 1.0 5.0 0.00 0.00 0.00 83 1023.4
20260830153034 49 134 2.0 5.0 0.00 0.00 0.00 88 1023.5
20260830150033 42 143 2.0 5.0 0.00 0.00 0.00 95 1023.3
20260830144534 40 156 1.0 4.0 0.00 0.00 0.00 95 1023.3
20260830143036 40 147 2.0 4.0 0.00 0.00 0.00 95 1023.2
20260830141535 40 158 2.0 4.0 0.00 0.00 0.00 94 1022.9
20260830140034 40 159 3.0 4.0 0.00 0.00 0.00 94 1022.8
20260830134529 40 144 3.0 4.0 0.00 0.00 0.00 93 1022.8
20260830133036 41 146 3.0 4.0 0.00 0.00 0.00 93 1022.7
20260830131611 40 150 3.0 5.0 0.00 0.00 0.00 94 1022.5
20260830130033 40 145 3.0 7.0 0.00 0.00 0.00 93 1022.5
20260830124535 40 146 2.0 5.0 0.00 0.00 0.00 92 1022.5
20260830123038 41 165 3.0 5.0 0.00 0.00 0.00 92 1022.5
20260830121533 42 159 3.0 5.0 0.00 0.00 0.00 92 1022.7
20260830120150 42 147 4.0 8.0 0.00 0.00 0.00 92 1022.7
20260830114606 41 140 4.0 7.0 0.00 0.00 0.00 92 1022.7
20260830113036 41 136 3.0 6.0 0.00 0.00 0.00 92 1022.7
20260830111535 42 141 3.0 6.0 0.00 0.00 0.00 91 1022.7
20260830110033 42 149 3.0 5.0 0.00 0.00 0.00 91 1022.8
20260830101537 43 157 3.0 7.0 0.00 0.00 0.00 91 1022.7